RH
41 41 46 46 45 47 48 50 52 53 49 37 32 29 28 25 25 25 24 23 22 21
46 45 47 48 50 52 54 56 55 53 45 34 31 29 28 28 29 27 26 26 24 22
47 49 50 52 55 57 61 59 55 51 36 32 30 30 31 32 31 30 30 30 26 26
49 50 52 53 62 58 59 54 49 41 34 33 32 34 35 34 35 37 34 31 28 28
50 52 54 57 59 56 50 46 41 35 35 36 37 38 38 39 40 38 35 34 33 33
51 52 52 52 50 47 43 40 35 36 39 40 41 42 43 43 40 36 35 34 34 34
47 45 46 45 42 39 35 36 38 40 43 44 45 45 43 40 37 37 37 38 38 36
41 40 37 34 32 34 38 41 43 47 47 47 47 44 39 38 38 37 41 39 37 34
31 31 31 32 35 40 43 45 49 52 50 48 45 41 40 40 40 42 40 37 34 32
29 31 33 37 42 45 49 52 57 55 54 51 47 44 44 42 43 40 37 34 32 29
32 35 38 42 48 51 54 59 58 55 53 54 51 48 44 42 39 35 32 31 29 26
37 40 44 47 51 55 58 60 62 59 57 55 50 46 42 38 35 33 30 28 27 25
43 46 49 51 55 61 67 67 64 60 56 52 48 42 39 35 33 30 30 30 27 20
48 50 53 59 67 75 70 66 62 57 54 49 43 40 36 33 31 31 30 26 20 17